1498788000.29,29589,15.94,73178.0,2.23,-18.99,-23.29,0,*72
1498788001.5,29590,15.94,73182.8,2.23,-18.99,-23.43,0,*76
1498788002.72,29591,15.94,73184.5,2.23,-18.89,-23.59,0,*7D
1498788003.92,29592,15.94,73184.8,2.23,-18.83,-23.75,0,*7A
1498788005.14,29593,15.94,73188.3,2.19,-18.73,-23.95,0,*73
1498788006.39,29594,15.94,73190.0,2.21,-18.55,-24.05,0,*75
1498788007.65,29595,15.94,73190.3,2.21,-18.41,-24.21,0,*77
1498788008.9,29596,15.94,73174.5,2.21,-18.25,-24.15,0,*71
1498788010.19,29597,15.94,73174.8,2.21,-18.31,-24.21,0,*72
1498788011.42,29598,15.94,73174.3,2.21,-18.99,-24.57,0,*7E
1498788012.68,29599,15.94,73184.0,2.21,-19.17,-24.71,0,*7C
1498788013.92,29600,15.94,73176.0,2.21,-19.13,-24.57,0,*7F
1498788015.17,29601,15.94,73176.3,2.21,-19.17,-24.67,0,*79
1498788016.45,29602,15.94,73174.0,2.21,-19.65,-24.83,0,*75
1498788017.67,29603,15.94,73174.0,2.23,-20.19,-25.19,0,*75
1498788018.86,29604,15.94,73180.3,2.23,-20.29,-25.19,0,*71
1498788020.1,29605,15.94,73186.8,2.21,-20.59,-25.39,0,*77
1498788021.35,29606,15.94,73196.8,2.21,-20.83,-25.35,0,*7F
1498788022.59,29607,15.94,73194.5,2.21,-20.89,-25.35,0,*74
1498788023.84,29608,15.94,73192.8,2.21,-20.83,-25.19,0,*7F
1498788025.09,29609,15.94,73182.0,2.21,-20.83,-24.97,0,*79
1498788026.37,29610,15.94,73174.8,2.21,-21.03,-24.87,0,*79
1498788027.63,29611,15.94,73160.8,2.21,-21.13,-24.83,0,*7D
1498788028.88,29612,15.94,73162.0,2.19,-21.23,-24.71,0,*7B
1498788030.08,29613,15.94,73154.5,2.23,-21.39,-24.57,0,*7C
1498788031.31,29614,15.94,73162.0,2.23,-21.63,-24.71,0,*70
1498788032.54,29615,15.94,73156.8,2.23,-21.77,-24.71,0,*74
1498788033.77,29616,15.94,73158.0,2.23,-21.93,-24.71,0,*7D
1498788035.02,29617,15.94,73170.3,2.23,-21.97,-24.71,0,*78
1498788036.27,29618,15.94,73174.0,2.23,-22.31,-24.83,0,*75
1498788037.51,29619,15.94,73162.3,2.25,-22.37,-24.67,0,*7E
1498788038.71,29620,15.94,73160.0,2.23,-22.11,-24.47,0,*74
1498788039.94,29621,15.94,73156.5,2.25,-22.03,-24.51,0,*77
1498788041.16,29622,15.94,73170.0,2.25,-22.03,-24.61,0,*77
1498788042.41,29623,15.94,73170.5,2.25,-22.03,-24.67,0,*70
1498788043.63,29624,15.94,73168.5,2.23,-21.63,-24.25,0,*72
1498788044.85,29625,15.94,73174.5,2.23,-21.63,-24.15,0,*70
1498788046.1,29626,15.94,73166.0,2.25,-21.27,-23.79,0,*78
1498788047.37,29627,15.94,73156.8,2.25,-20.99,-23.33,0,*73
1498788048.65,29628,15.94,73158.0,2.25,-20.83,-23.03,0,*74
1498788049.9,29629,15.94,73158.3,2.25,-20.35,-22.53,0,*7C
1498788051.16,29630,15.94,73166.3,2.25,-19.91,-22.17,0,*70
1498788052.41,29631,15.94,73174.8,2.25,-19.57,-21.63,0,*7B
1498788053.62,29632,15.94,73180.8,2.27,-19.07,-21.47,0,*79
1498788054.84,29633,15.94,73176.0,2.25,-18.49,-21.09,0,*7B
1498788056.1,29634,15.94,73166.3,2.25,-17.63,-20.39,0,*79
1498788057.35,29635,15.94,73162.3,2.23,-16.65,-19.65,0,*7A
1498788058.6,29636,15.94,73162.8,2.25,-15.99,-19.41,0,*79
1498788059.88,29637,15.94,73140.0,2.25,-15.39,-19.27,0,*72
1498788061.11,29638,15.94,73142.5,2.27,-15.25,-19.57,0,*75
1498788062.34,29639,15.94,73126.5,2.27,-14.79,-19.75,0,*7C
1498788063.57,29640,15.94,73122.0,2.27,-14.65,-20.19,0,*7F
1498788064.79,29641,15.94,73126.5,2.25,-14.65,-20.69,0,*7B
1498788066.02,29642,15.94,73136.0,2.27,-14.65,-21.23,0,*75
1498788067.24,29643,15.94,73138.3,2.27,-14.69,-21.53,0,*7F
1498788068.51,29644,15.94,73156.8,2.27,-14.83,-22.17,0,*7F
1498788069.76,29645,15.94,73150.3,2.25,-14.83,-22.57,0,*78
1498788071.02,29646,15.94,73178.8,2.27,-15.35,-23.19,0,*7E
1498788072.24,29647,15.94,73182.3,2.27,-15.57,-23.79,0,*7D
1498788073.47,29648,15.94,73174.5,2.27,-16.13,-24.31,0,*7A
1498788074.67,29649,15.94,73192.3,2.27,-16.89,-24.93,0,*70
1498788075.91,29650,15.94,73202.5,2.27,-17.17,-24.97,0,*7A
1498788077.13,29651,15.94,73128.5,2.27,-17.31,-24.67,0,*70
1498788078.35,29652,15.94,73122.0,2.27,-17.79,-24.93,0,*74
1498788079.57,29653,15.94,73154.8,2.27,-17.87,-24.67,0,*7F
1498788080.85,29654,15.94,73166.3,2.29,-18.35,-24.71,0,*77
1498788082.05,29655,15.94,73172.8,2.27,-18.99,-24.97,0,*76
1498788083.3,29656,15.94,73178.8,2.27,-19.27,-25.09,0,*77
1498788084.54,29657,15.94,73180.8,2.29,-19.81,-24.93,0,*76
1498788085.76,29658,15.94,73178.8,2.27,-20.15,-25.13,0,*79
1498788087.01,29659,15.94,73170.5,2.29,-20.79,-25.23,0,*7F
1498788088.21,29660,15.94,73176.0,2.27,-21.13,-25.35,0,*71
1498788089.44,29661,15.94,73178.0,2.27,-21.47,-25.45,0,*76
1498788090.64,29662,15.94,73180.8,2.27,-21.77,-25.35,0,*71
1498788091.87,29663,15.94,73176.5,2.27,-21.87,-25.35,0,*7F
1498788093.08,29664,15.94,73174.0,2.27,-22.27,-25.49,0,*7A
1498788094.31,29665,15.94,73170.0,2.25,-22.41,-25.35,0,*72
1498788095.54,29666,15.94,73168.8,2.25,-22.41,-25.13,0,*75
1498788096.76,29667,15.94,73178.0,2.25,-22.67,-25.23,0,*73
1498788097.99,29668,15.94,73180.3,2.25,-22.87,-25.23,0,*72
1498788099.22,29669,15.94,73182.3,2.25,-23.13,-25.13,0,*7C
1498788100.47,29670,15.94,73178.0,2.23,-23.23,-25.03,0,*70
1498788101.72,29671,15.94,73174.8,2.25,-23.19,-24.47,0,*7F
1498788102.95,29672,15.94,73172.8,2.27,-23.19,-24.31,0,*7F
1498788104.2,29673,15.94,73170.5,2.23,-23.23,-23.99,0,*76
1498788105.44,29674,15.94,73174.3,2.23,-23.19,-23.53,0,*7E
1498788106.7,29675,15.94,73172.5,2.23,-23.03,-23.23,0,*73
1498788107.98,29676,15.94,73180.0,2.21,-23.03,-23.19,0,*7B
1498788109.21,29677,15.94,73176.0,2.23,-23.03,-22.93,0,*7B
1498788110.45,29678,15.94,73178.0,2.25,-22.97,-22.97,0,*7A
1498788111.7,29679,15.94,73168.0,2.23,-23.03,-23.19,0,*76
1498788112.89,29680,15.94,73176.3,2.23,-22.87,-23.39,0,*7F
1498788114.12,29681,15.94,73174.0,2.21,-22.87,-23.75,0,*74
1498788115.35,29682,15.94,73178.3,2.21,-22.93,-24.31,0,*75
1498788116.57,29683,15.94,73178.3,2.21,-22.87,-24.35,0,*75
1498788117.83,29684,15.94,73182.5,2.21,-23.09,-24.83,0,*78
1498788119.06,29685,15.94,73182.5,2.21,-23.39,-25.19,0,*78
1498788120.26,29686,15.94,73182.3,2.19,-23.43,-25.35,0,*73
1498788121.47,29687,15.94,73184.8,2.19,-23.43,-25.09,0,*7D
1498788122.71,29688,15.94,73182.8,2.21,-23.59,-25.13,0,*79
1498788123.91,29689,15.94,73172.3,2.19,-23.89,-25.19,0,*74
1498788125.18,29690,15.94,73176.5,2.21,-23.85,-24.83,0,*79
1498788126.46,29691,15.94,73178.5,2.21,-23.85,-24.67,0,*72
1498788127.68,29692,15.94,73178.8,2.19,-23.89,-24.41,0,*72
1498788128.91,29693,15.94,73180.0,2.19,-23.89,-24.21,0,*75
1498788130.12,29694,15.94,73180.8,2.19,-23.75,-23.79,0,*7B
1498788131.34,29695,15.94,73178.8,2.19,-23.65,-23.59,0,*79
1498788132.59,29696,15.94,73180.8,2.19,-23.33,-23.33,0,*75
1498788133.83,29697,15.94,73180.8,2.19,-23.23,-23.29,0,*7E
1498788135.08,29698,15.94,73182.3,2.19,-23.23,-23.29,0,*71
1498788136.33,29699,15.94,73180.0,2.17,-23.13,-23.33,0,*76
1498788137.61,29700,15.94,73178.3,2.17,-23.03,-23.49,0,*7B
1498788138.85,29701,15.94,73182.5,2.17,-22.87,-23.53,0,*7C
1498788140.1,29702,15.94,73172.5,2.17,-22.83,-23.69,0,*72
1498788141.35,29703,15.94,73172.3,2.17,-22.53,-23.65,0,*72
1498788142.61,29704,15.94,73164.5,2.17,-22.57,-23.85,0,*7F
1498788143.86,29705,15.94,73170.8,2.17,-22.67,-23.99,0,*70
1498788145.11,29706,15.94,73172.3,2.15,-22.73,-24.25,0,*74
1498788146.33,29707,15.94,73176.0,2.15,-22.73,-24.31,0,*70
1498788147.55,29708,15.94,73170.5,2.15,-22.87,-24.25,0,*71
1498788148.8,29709,15.94,73180.5,2.17,-22.87,-24.25,0,*72
1498788150.05,29710,15.94,73180.0,2.17,-22.87,-24.25,0,*7A
1498788151.3,29711,15.94,73184.5,2.17,-22.83,-24.25,0,*7F
1498788152.56,29712,15.94,73182.3,2.17,-22.83,-24.25,0,*7C
1498788153.81,29713,15.94,73184.3,2.17,-22.57,-24.25,0,*74
1498788155.07,29714,15.94,73182.0,2.17,-22.57,-24.11,0,*74
1498788156.33,29715,15.94,73180.5,2.17,-22.73,-24.15,0,*77
1498788157.58,29716,15.94,73176.0,2.17,-22.83,-24.15,0,*7B
1498788158.8,29717,15.94,73174.5,2.15,-22.83,-24.15,0,*78
1498788160.04,29718,15.94,73172.5,2.17,-22.83,-24.15,0,*75
1498788161.26,29719,15.94,73174.0,2.15,-22.67,-24.15,0,*7C
1498788162.51,29720,15.94,73184.3,2.17,-22.73,-24.31,0,*77
1498788163.76,29721,15.94,73182.3,2.17,-22.57,-24.41,0,*77
1498788165.01,29722,15.94,73174.5,2.17,-22.73,-24.61,0,*70
1498788166.24,29723,15.94,73170.0,2.17,-22.83,-24.93,0,*73
1498788167.44,29724,15.94,73174.3,2.15,-22.97,-25.23,0,*79
1498788168.7,29725,15.94,73176.0,2.17,-23.03,-25.39,0,*7D
1498788169.95,29726,15.94,73172.3,2.15,-23.03,-25.45,0,*77
1498788171.2,29727,15.94,73172.8,2.15,-23.03,-25.29,0,*7C
1498788172.43,29728,15.94,73174.8,2.15,-23.29,-25.39,0,*7A
1498788173.63,29729,15.94,73172.0,2.15,-23.13,-25.23,0,*79
1498788174.86,29730,15.94,73184.8,2.15,-23.33,-25.39,0,*78
1498788176.09,29731,15.94,73180.5,2.15,-23.65,-25.49,0,*7D
1498788177.37,29732,15.94,73178.3,2.17,-23.65,-25.45,0,*70
1498788178.59,29733,15.94,73186.5,2.15,-23.65,-25.39,0,*78
1498788179.82,29734,15.94,73186.0,2.17,-23.39,-25.09,0,*77
1498788181.07,29735,15.94,73190.0,2.13,-23.59,-25.45,0,*7C
1498788182.32,29736,15.94,73192.3,2.15,-23.95,-25.45,0,*79
1498788183.55,29737,15.94,73190.8,2.15,-23.65,-25.23,0,*77
1498788184.78,29738,15.94,73178.5,2.15,-23.53,-25.13,0,*7E
1498788186.0,29739,15.88,73180.5,2.15,-23.65,-25.23,0,*79
1498788187.21,29740,15.94,73192.0,2.15,-23.79,-25.39,0,*71
1498788188.43,29741,15.94,73190.3,2.15,-23.69,-25.39,0,*71
1498788189.65,29742,15.94,73186.3,2.15,-23.33,-24.97,0,*78
1498788190.88,29743,15.94,73198.5,2.15,-23.65,-25.23,0,*74
1498788192.08,29744,15.94,73200.5,2.15,-23.79,-25.39,0,*75
1498788193.3,29745,15.94,73202.8,2.15,-23.69,-25.13,0,*7D
1498788194.57,29746,15.94,73194.3,2.13,-23.69,-25.03,0,*79
1498788195.83,29747,15.94,73196.0,2.13,-23.59,-25.03,0,*7B
1498788197.08,29748,15.94,73172.5,2.13,-23.23,-24.57,0,*79
1498788198.34,29749,15.94,73174.8,2.13,-23.09,-24.21,0,*71
1498788199.62,29750,15.94,73178.0,2.13,-23.19,-24.21,0,*78
1498788200.9,29751,15.94,73180.5,2.13,-23.23,-24.21,0,*70
1498788202.15,29752,15.94,73172.5,2.15,-23.19,-23.99,0,*78
1498788203.37,29753,15.94,73172.0,2.15,-22.97,-23.33,0,*7E
1498788204.63,29754,15.94,73168.8,2.15,-23.19,-23.33,0,*7E
1498788205.88,29755,15.94,73166.5,2.15,-23.33,-23.03,0,*74
1498788207.1,29756,15.94,73168.5,2.15,-23.49,-22.67,0,*79
1498788208.38,29757,15.94,73168.5,2.13,-23.53,-22.21,0,*77
1498788209.61,29758,15.94,73168.5,2.15,-23.13,-20.83,0,*70
1498788210.81,29759,15.94,73174.3,2.15,-22.83,-19.99,0,*78
1498788212.03,29760,15.94,73168.5,2.15,-22.37,-18.93,0,*76
1498788213.23,29761,15.94,73164.3,2.15,-21.93,-17.73,0,*7B
1498788214.46,29762,15.94,73156.3,2.15,-21.23,-16.55,0,*76
1498788215.69,29763,15.94,73158.8,2.17,-20.39,-15.53,0,*7A
1498788216.92,29764,15.94,73160.3,2.15,-19.75,-14.47,0,*79
1498788218.13,29765,15.94,73160.8,2.15,-19.37,-13.65,0,*79
1498788219.38,29766,15.94,73162.5,2.15,-18.93,-12.83,0,*7C
1498788220.58,29767,15.94,73170.0,2.15,-18.65,-12.25,0,*78
1498788221.82,29768,15.94,73166.5,2.13,-18.11,-11.81,0,*7F
1498788223.1,29769,15.94,73164.3,2.13,-17.55,-11.29,0,*73
1498788224.35,29770,15.94,73164.0,2.13,-17.31,-11.29,0,*79
1498788225.6,29771,15.94,73164.5,2.15,-17.11,-11.51,0,*73
1498788226.85,29772,15.94,73160.5,2.15,-17.17,-12.11,0,*71
1498788228.11,29773,15.94,73164.8,2.15,-17.17,-12.79,0,*7E
1498788229.39,29774,15.94,73162.0,2.17,-17.59,-13.61,0,*79
1498788230.64,29775,15.94,73164.3,2.17,-18.17,-13.97,0,*74
1498788231.9,29776,15.94,73170.8,2.17,-18.79,-14.51,0,*72
1498788233.13,29777,15.94,73168.8,2.15,-19.71,-15.39,0,*77
1498788234.36,29778,15.94,73168.3,2.15,-20.15,-15.95,0,*76
1498788235.63,29779,15.94,73174.5,2.17,-20.49,-16.69,0,*7C
1498788236.86,29780,15.94,73170.5,2.17,-20.93,-17.49,0,*7E
1498788238.08,29781,15.94,73178.8,2.15,-21.27,-18.41,0,*74
1498788239.33,29782,15.94,73176.5,2.17,-21.57,-19.47,0,*75
1498788240.56,29783,15.94,73168.8,2.15,-21.57,-20.05,0,*7A
1498788241.77,29784,15.94,73162.3,2.15,-22.03,-20.79,0,*74
1498788243.04,29785,15.94,73140.0,2.19,-22.17,-21.23,0,*72
1498788244.29,29786,15.94,73126.3,2.17,-22.57,-21.57,0,*78
1498788245.54,29787,15.94,73122.3,2.17,-22.97,-21.57,0,*75
1498788246.74,29788,15.94,73128.3,2.15,-23.13,-21.47,0,*74
1498788248.0,29789,15.94,73124.5,2.17,-23.19,-21.39,0,*74
1498788249.25,29790,15.94,73112.8,2.17,-23.29,-21.09,0,*7C
1498788250.47,29791,15.94,73116.5,2.19,-22.97,-20.79,0,*71
1498788251.68,29792,15.94,73124.0,2.19,-23.13,-20.89,0,*70
1498788252.89,29793,15.94,73132.8,2.19,-22.83,-20.73,0,*7C
1498788254.11,29794,15.94,73144.5,2.19,-22.67,-20.79,0,*7B
1498788255.31,29795,15.94,73158.5,2.19,-22.63,-21.17,0,*77
1498788256.53,29796,15.94,73142.0,2.19,-22.27,-21.33,0,*72
1498788257.75,29797,15.94,73150.8,2.19,-22.11,-21.57,0,*74
1498788258.98,29798,15.94,73164.5,2.19,-22.27,-22.31,0,*7D
1498788260.21,29799,15.94,73156.3,2.19,-22.31,-22.67,0,*78
1498788261.41,29800,15.88,73160.5,2.19,-22.37,-22.93,0,*7A
1498788262.62,29801,15.94,73176.5,2.19,-22.53,-23.09,0,*7B
1498788263.86,29802,15.94,73174.3,2.19,-22.53,-23.23,0,*70
1498788265.11,29803,15.94,73172.8,2.17,-22.57,-23.19,0,*72
1498788266.39,29804,15.94,73172.3,2.17,-22.31,-23.19,0,*75
1498788267.62,29805,15.94,73172.3,2.17,-22.57,-23.39,0,*76
1498788268.88,29806,15.94,73172.8,2.17,-22.53,-23.53,0,*7D
1498788270.13,29807,15.94,73170.0,2.17,-22.57,-23.53,0,*78
1498788271.36,29808,15.94,73166.0,2.19,-22.53,-23.65,0,*78
1498788272.61,29809,15.88,73160.3,2.17,-22.53,-24.11,0,*73
1498788273.83,29810,15.94,73166.3,2.17,-22.67,-24.47,0,*7F
1498788275.08,29811,15.88,73168.3,2.17,-22.87,-24.83,0,*78
1498788276.28,29812,15.94,73178.3,2.15,-22.87,-24.97,0,*7C
1498788277.53,29813,15.88,73176.3,2.17,-23.03,-25.23,0,*7C
1498788278.76,29814,15.94,73182.8,2.17,-23.13,-25.39,0,*71
1498788279.96,29815,15.94,73162.8,2.19,-23.09,-25.23,0,*7E
1498788281.16,29816,15.94,73160.5,2.15,-22.83,-24.77,0,*72
1498788282.36,29817,15.94,73148.5,2.15,-22.87,-24.77,0,*77
1498788283.59,29818,15.94,73132.8,2.17,-22.67,-24.47,0,*77
1498788284.81,29819,15.94,73150.5,2.17,-22.67,-24.47,0,*76
1498788286.04,29820,15.94,73158.0,2.17,-22.83,-24.47,0,*76
1498788287.29,29821,15.94,73150.8,2.17,-22.97,-24.67,0,*70
1498788288.54,29822,15.94,73134.0,2.17,-22.41,-24.25,0,*7E
1498788289.82,29823,15.94,73154.8,2.21,-22.31,-24.15,0,*7E
1498788291.04,29824,15.94,73158.5,2.19,-22.37,-24.25,0,*77
1498788292.27,29825,15.94,73158.8,2.21,-21.93,-23.89,0,*71
1498788293.5,29826,15.88,73154.3,2.21,-21.77,-23.59,0,*75
1498788294.76,29827,15.88,73150.0,2.21,-21.27,-23.43,0,*7A
1498788295.99,29828,15.94,73158.5,2.21,-21.13,-23.43,0,*72
1498788297.22,29829,15.94,73144.0,2.23,-21.13,-23.53,0,*70
1498788298.46,29830,15.94,73146.8,2.23,-20.53,-23.53,0,*7D
1498788299.68,29831,15.88,73128.3,2.23,-20.53,-23.89,0,*7B
1498788300.9,29832,15.94,73136.0,2.23,-20.39,-24.15,0,*76
1498788302.13,29833,15.88,73146.8,2.23,-20.39,-24.21,0,*70
1498788303.33,29834,15.88,73152.3,2.23,-20.39,-24.35,0,*72
1498788304.53,29835,15.88,73162.5,2.23,-20.25,-24.57,0,*7A
1498788305.72,29836,15.88,73158.8,2.23,-20.05,-24.57,0,*7B
1498788306.95,29837,15.94,73152.8,2.23,-19.27,-23.89,0,*74
1498788308.2,29838,15.88,73094.8,2.25,-18.35,-23.13,0,*7C
1498788309.43,29839,15.94,73062.0,2.25,-18.41,-22.87,0,*72
1498788310.66,29840,15.94,73106.0,2.25,-18.69,-22.57,0,*7B
1498788311.89,29841,15.88,73104.8,2.25,-18.83,-22.57,0,*7E
1498788313.12,29842,15.94,73128.3,2.25,-18.99,-22.41,0,*71
1498788314.35,29843,15.94,73134.5,2.27,-19.13,-22.21,0,*77
1498788315.58,29844,15.94,73132.0,2.27,-19.31,-22.07,0,*74
1498788316.82,29845,15.88,73138.8,2.27,-19.27,-21.47,0,*75
1498788318.05,29846,15.94,73128.5,2.29,-19.07,-20.93,0,*72
1498788319.3,29847,15.94,73144.0,2.29,-18.65,-20.19,0,*74
1498788320.56,29848,15.88,73136.0,2.29,-18.21,-19.57,0,*7B
1498788321.83,29849,15.88,73130.0,2.29,-17.45,-18.59,0,*78
1498788323.08,29850,15.88,73140.8,2.33,-17.25,-18.17,0,*77
1498788324.35,29851,15.88,73140.5,2.29,-17.07,-17.55,0,*74
1498788325.6,29852,15.88,73142.8,2.29,-16.17,-16.37,0,*72
1498788326.82,29853,15.94,73142.8,2.29,-15.53,-15.67,0,*76
1498788328.11,29854,15.88,73126.5,2.29,-14.47,-14.79,0,*7B
1498788329.35,29855,15.88,73124.3,2.29,-13.87,-14.29,0,*74
1498788330.61,29856,15.88,73150.5,2.27,-12.65,-13.61,0,*7F
1498788331.84,29857,15.94,73146.5,2.33,-12.21,-13.55,0,*7C
1498788333.12,29858,15.88,73152.5,2.33,-11.77,-13.61,0,*74
1498788334.37,29859,15.94,73138.0,2.33,-11.07,-13.73,0,*71
1498788335.63,29860,15.94,73148.8,2.33,-10.67,-14.19,0,*77
1498788336.88,29861,15.88,73148.0,2.29,-10.63,-15.07,0,*77
1498788338.12,29862,15.94,73158.5,2.29,-10.75,-16.03,0,*74
1498788339.39,29863,15.88,73150.3,2.33,-10.93,-17.07,0,*73
1498788340.64,29864,15.88,73154.3,2.33,-11.07,-18.17,0,*76
1498788341.88,29865,15.94,73160.0,2.33,-11.73,-19.51,0,*77
1498788343.14,29866,15.88,73154.5,2.33,-12.35,-20.43,0,*7C
1498788344.39,29867,15.94,73174.5,2.33,-13.15,-21.03,0,*7B
1498788345.65,29868,15.88,73176.8,2.33,-14.29,-21.87,0,*70
1498788346.89,29869,15.88,73172.0,2.33,-15.21,-22.37,0,*70
1498788348.12,29870,15.88,73148.8,2.35,-15.85,-22.57,0,*76
1498788349.36,29871,15.88,73160.0,2.33,-16.93,-23.29,0,*7D
1498788350.61,29872,15.88,73162.0,2.33,-17.55,-23.59,0,*72
1498788351.83,29873,15.94,73168.0,2.33,-18.17,-23.79,0,*78
1498788353.07,29874,15.88,73164.8,2.35,-19.13,-24.21,0,*76
1498788354.27,29875,15.94,73168.0,2.35,-19.75,-24.51,0,*70
1498788355.46,29876,15.88,73160.3,2.35,-20.09,-24.35,0,*70
1498788356.71,29877,15.94,73172.3,2.33,-20.73,-24.41,0,*79
1498788357.93,29878,15.94,73160.8,2.33,-20.59,-23.89,0,*7D
1498788359.16,29879,15.88,73158.8,2.29,-20.93,-23.75,0,*72
1498788360.4,29880,15.88,73166.3,2.33,-21.43,-23.65,0,*72
1498788361.66,29881,15.88,73158.5,2.33,-21.53,-23.09,0,*78
1498788362.92,29882,15.88,73164.0,2.33,-21.57,-22.53,0,*71
1498788364.19,29883,15.88,73166.3,2.33,-21.57,-21.67,0,*74
1498788365.44,29884,15.94,73158.8,2.33,-21.17,-20.79,0,*79
1498788366.7,29885,15.94,73166.3,2.33,-20.59,-19.27,0,*72
1498788367.9,29886,15.88,73166.0,2.35,-20.05,-18.11,0,*7A
1498788369.15,29887,15.88,73172.0,2.35,-19.31,-16.65,0,*7B
1498788370.4,29888,15.94,73174.5,2.33,-18.17,-14.93,0,*7C
1498788371.65,29889,15.88,73182.0,2.33,-17.55,-13.55,0,*79
1498788372.89,29890,15.88,73180.5,2.33,-16.41,-12.21,0,*77
1498788374.09,29891,15.94,73182.3,2.35,-15.25,-11.19,0,*79
1498788375.3,29892,15.88,73176.3,2.35,-14.11,-10.35,0,*73
1498788376.55,29893,15.88,73172.3,2.33,-12.75,-9.79,0,*40
1498788377.78,29894,15.88,73168.5,2.35,-11.41,-9.11,0,*4B
1498788379.0,29895,15.94,73168.3,2.35,-10.35,-9.11,0,*48
1498788380.24,29896,15.88,73166.3,2.35,-9.61,-9.37,0,*76
1498788381.43,29897,15.88,73158.8,2.35,-8.97,-9.97,0,*75
1498788382.62,29898,15.88,73160.0,2.35,-8.45,-10.89,0,*42
1498788383.87,29899,15.94,73162.0,2.33,-8.25,-11.93,0,*49
1498788385.09,29900,15.88,73160.3,2.35,-7.99,-13.15,0,*4A
1498788386.33,29901,15.88,73168.5,2.33,-7.91,-14.19,0,*4E
1498788387.55,29902,15.88,73164.0,2.35,-8.17,-15.85,0,*4E
1498788388.76,29903,15.88,73128.0,2.35,-8.93,-17.35,0,*4A
1498788389.95,29904,15.94,73144.8,2.35,-9.89,-18.73,0,*4A
1498788391.17,29905,15.88,73156.5,2.35,-10.79,-19.75,0,*7B
1498788392.4,29906,15.88,73154.3,2.35,-11.67,-20.09,0,*77
1498788393.63,29907,15.88,73158.3,2.35,-12.53,-20.43,0,*7C
1498788394.84,29908,15.88,73164.0,2.37,-13.23,-20.69,0,*7F
1498788396.1,29909,15.88,73166.0,2.35,-13.97,-20.83,0,*77
1498788397.33,29910,15.94,73178.0,2.35,-14.55,-20.73,0,*79
1498788398.56,29911,15.88,73174.5,2.35,-15.11,-20.53,0,*7B
1498788399.79,29912,15.94,73188.0,2.35,-15.49,-20.53,0,*75
1498788401.04,29913,15.88,73190.0,2.35,-15.85,-20.53,0,*74
1498788402.28,29914,15.88,73192.5,2.35,-16.13,-20.59,0,*75
1498788403.48,29915,15.94,73190.8,2.35,-16.55,-21.17,0,*7D
1498788404.71,29916,15.94,73198.8,2.35,-17.07,-21.77,0,*7E
1498788405.99,29917,15.88,73186.5,2.33,-17.59,-22.47,0,*72
1498788407.25,29918,15.88,73182.3,2.33,-18.21,-23.19,0,*77
1498788408.5,29919,15.88,73184.0,2.33,-18.79,-23.33,0,*73
1498788409.75,29920,15.88,73188.5,2.35,-19.23,-23.29,0,*7A
1498788410.95,29921,15.88,73182.3,2.35,-19.37,-22.41,0,*71
1498788412.19,29922,15.94,73178.8,2.33,-19.41,-21.73,0,*77
1498788413.42,29923,15.88,73174.3,2.33,-19.37,-21.09,0,*7A
1498788414.68,29924,15.88,73168.3,2.29,-19.23,-20.29,0,*70
1498788415.94,29925,15.88,73170.3,2.33,-19.37,-19.57,0,*7C
1498788417.23,29926,15.88,73190.0,2.33,-19.27,-19.23,0,*7D
1498788418.45,29927,15.88,73210.5,2.29,-18.79,-18.73,0,*79
1498788419.71,29928,15.94,73172.3,2.33,-17.69,-17.97,0,*76
1498788420.93,29929,15.88,73148.5,2.33,-16.97,-17.73,0,*7D
1498788422.19,29930,15.88,73168.8,2.33,-16.65,-17.83,0,*77
1498788423.44,29931,15.88,73176.3,2.33,-16.69,-18.65,0,*7D
1498788424.69,29932,15.88,73176.3,2.33,-16.93,-19.41,0,*7C
1498788425.94,29933,15.88,73182.3,2.35,-17.25,-20.35,0,*7E
1498788427.2,29934,15.88,73178.3,2.35,-17.55,-21.23,0,*78
1498788428.42,29935,15.88,73182.8,2.33,-18.21,-22.37,0,*75
1498788429.67,29936,15.94,73180.0,2.33,-19.03,-23.33,0,*72
1498788430.93,29937,15.88,73180.8,2.33,-19.57,-24.05,0,*70
1498788432.18,29938,15.88,73172.5,2.33,-20.09,-24.21,0,*78
1498788433.42,29939,15.88,73160.8,2.33,-20.19,-24.05,0,*7E
1498788434.68,29940,15.88,73162.3,2.29,-20.63,-24.21,0,*70
1498788435.93,29941,15.88,73176.3,2.33,-21.27,-24.57,0,*7A
1498788437.18,29942,15.88,73184.5,2.35,-21.97,-24.83,0,*7D
1498788438.4,29943,15.88,73188.5,2.33,-22.37,-24.93,0,*72
1498788439.69,29944,15.88,73172.5,2.33,-22.77,-24.71,0,*7D
1498788440.91,29945,15.88,73176.8,2.33,-23.13,-24.61,0,*7E
1498788442.16,29946,15.88,73178.8,2.33,-23.29,-24.31,0,*71
1498788443.43,29947,15.88,73176.0,2.33,-23.33,-23.95,0,*72
1498788444.68,29948,15.88,73164.0,2.35,-23.23,-23.53,0,*70
1498788445.94,29949,15.88,73180.0,2.33,-23.19,-22.97,0,*77
1498788447.22,29950,15.88,73188.3,2.33,-23.19,-22.47,0,*72
1498788448.44,29951,15.88,73174.0,2.27,-22.67,-21.57,0,*7C
1498788449.68,29952,15.88,73176.5,2.29,-22.53,-20.93,0,*7F
1498788450.93,29953,15.88,73162.3,2.33,-22.47,-20.09,0,*73
1498788452.15,29954,15.88,73144.3,2.33,-22.03,-19.07,0,*70
1498788453.42,29955,15.88,73144.8,2.29,-21.03,-18.01,0,*7E
1498788454.65,29956,15.88,73148.5,2.29,-20.43,-17.69,0,*79
1498788455.87,29957,15.88,73148.3,2.29,-19.99,-17.73,0,*7E
1498788457.14,29958,15.88,73152.8,2.29,-19.57,-18.59,0,*74
1498788458.4,29959,15.88,73154.3,2.29,-19.51,-19.41,0,*7B
1498788459.66,29960,15.88,73158.5,2.33,-19.81,-20.79,0,*76
1498788460.91,29961,15.88,73150.8,2.33,-20.09,-21.67,0,*73
1498788462.16,29962,15.88,73156.8,2.33,-20.63,-22.77,0,*7E
1498788463.44,29963,15.88,73150.3,2.33,-21.23,-23.49,0,*76
1498788464.69,29964,15.88,73150.0,2.29,-22.03,-24.25,0,*76
1498788465.94,29965,15.88,73152.3,2.29,-22.47,-24.57,0,*72
1498788467.19,29966,15.88,73158.3,2.29,-22.67,-24.71,0,*77
1498788468.41,29967,15.88,73164.0,2.27,-22.87,-24.83,0,*7B
1498788469.64,29968,15.88,73170.5,2.27,-22.97,-24.67,0,*7F
1498788470.87,29969,15.88,73170.3,2.29,-22.93,-24.47,0,*76
1498788472.07,29970,15.88,73176.0,2.27,-22.97,-24.35,0,*71
1498788473.32,29971,15.88,73170.5,2.27,-23.03,-24.25,0,*7D
1498788474.55,29972,15.88,73166.0,2.27,-22.97,-23.69,0,*7D
1498788475.78,29973,15.88,73172.3,2.27,-22.87,-23.23,0,*73
1498788477.01,29974,15.88,73170.8,2.27,-23.13,-22.73,0,*7C
1498788478.23,29975,15.88,73168.8,2.27,-23.19,-22.07,0,*74
1498788479.44,29976,15.88,73176.8,2.27,-23.13,-21.47,0,*7A
1498788480.66,29977,15.88,73176.8,2.27,-23.49,-21.09,0,*7E
1498788481.89,29978,15.88,73174.5,2.27,-23.49,-19.99,0,*73
1498788483.16,29979,15.88,73168.3,2.29,-23.29,-18.93,0,*71
1498788484.4,29980,15.88,73170.8,2.29,-22.93,-17.83,0,*79
1498788485.65,29981,15.88,73164.5,2.29,-22.47,-16.93,0,*71
1498788486.88,29982,15.88,73166.5,2.27,-21.87,-15.99,0,*7A
1498788488.1,29983,15.88,73164.3,2.27,-21.09,-15.35,0,*7B
1498788489.33,29984,15.88,73168.3,2.27,-20.39,-15.21,0,*7B
1498788490.56,29985,15.88,73172.8,2.27,-19.61,-15.67,0,*7F
1498788491.79,29986,15.88,73180.5,2.27,-18.93,-16.45,0,*73
1498788493.02,29987,15.88,73170.8,2.27,-18.65,-17.59,0,*77
1498788494.26,29988,15.88,73164.0,2.29,-18.59,-19.03,0,*78
1498788495.49,29989,15.88,73170.3,2.27,-18.79,-20.35,0,*7A
1498788496.74,29990,15.88,73172.8,2.27,-18.89,-21.27,0,*7F
1498788497.95,29991,15.88,73178.5,2.27,-19.13,-22.37,0,*7E
1498788499.16,29992,15.88,73176.5,2.27,-19.47,-23.13,0,*7B
1498788500.39,29993,15.88,73182.5,2.29,-19.51,-23.43,0,*76
1498788501.62,29994,15.88,73182.5,2.29,-19.81,-23.89,0,*7A
1498788502.83,29995,15.88,73184.5,2.27,-19.71,-23.79,0,*75